Imperial, CA

3:29 AM PST on December 18, 2017 (GMT -0800)
Imperial County

Weather History for KIPL - October, 2011

Change the Weather History Date:

Sunday, October 16, 2011

  Actual Average Record
Temperature  
Mean Temperature 83 °F -  
Max Temperature 102 °F 88 °F 103 °F (1958)
Min Temperature 66 °F 59 °F 52 °F (1966)
Cooling Degree Days 18    
Growing Degree Days 33 (Base 50)    
Moisture  
Dew Point 44 °F    
Average Humidity 28    
Maximum Humidity 45    
Minimum Humidity 10    
Precipitation  
Precipitation 0.00 in - - ()
Sea Level Pressure  
Sea Level Pressure 29.84 in    
Wind  
Wind Speed 3 mph (West)    
Max Wind Speed 8 mph    
Max Gust Speed -    
Visibility 10 miles    
Events      
Averages and records for this station are not official NWS values.
T = Trace of Precipitation, MM = Missing Value Source: NWS Daily Summary

Daily Weather History Graph

Daily Weather History Graph

Search for Another Location

Airport or City:

Trip Planner

Search our weather history database for the weather conditions in past years. The results will help you decide how hot, cold, wet, or windy it might be!

Date:

Astronomy

Oct. 16, 2011 Rise Set
Actual Time 6:47 AM PDT 6:08 PM PDT
Civil Twilight 6:22 AM PDT 6:33 PM PDT
Nautical Twilight 5:53 AM PDT 7:01 PM PDT
Astronomical Twilight 5:24 AM PDT 7:30 PM PDT
Moon 9:11 PM PDT (10/16) 10:54 AM PDT (10/16)
Length of Visible Light 12h 10m
Length of Day
11h 21m
Waning Gibbous, 81% of the Moon is Illuminated
Oct 16
Waning Gibbous
Oct 19
Last Quarter
Oct 26
New
Nov 2
First Quarter
Nov 10
Full

Hourly Weather History & Observations

Time (PDT) Temp. Dew Point Humidity Pressure Visibility Wind Dir Wind Speed Gust Speed Precip Events Conditions
12:53 AM 73.9 °F 39.9 °F 29% 29.81 in 10.0 mi WNW 5.8 mph - N/A   Clear
1:53 AM 78.8 °F 39.2 °F 24% 29.80 in 10.0 mi Calm Calm - N/A   Clear
2:53 AM 71.1 °F 42.1 °F 35% 29.81 in 10.0 mi Calm Calm - N/A   Clear
3:53 AM 71.1 °F 42.1 °F 35% 29.81 in 10.0 mi SSW 3.5 mph - N/A   Clear
4:53 AM 69.1 °F 42.1 °F 38% 29.82 in 10.0 mi Calm Calm - N/A   Clear
5:53 AM 68.0 °F 43.0 °F 40% 29.83 in 10.0 mi Calm Calm - N/A   Clear
6:53 AM 66.0 °F 44.1 °F 45% 29.84 in 10.0 mi Calm Calm - N/A   Clear
7:53 AM 70.0 °F 45.0 °F 41% 29.86 in 10.0 mi Calm Calm - N/A   Clear
8:53 AM 77.0 °F 48.9 °F 37% 29.89 in 9.0 mi Calm Calm - N/A   Clear
9:53 AM 84.0 °F 50.0 °F 31% 29.90 in 10.0 mi West 3.5 mph - N/A   Clear
10:53 AM 89.1 °F 44.1 °F 21% 29.89 in 10.0 mi Calm Calm - N/A   Clear
11:53 AM 93.9 °F 43.0 °F 17% 29.88 in 10.0 mi North 4.6 mph - N/A   Clear
12:53 PM 97.0 °F 39.0 °F 13% 29.86 in 10.0 mi NNE 4.6 mph - N/A   Clear
1:53 PM 98.1 °F 37.0 °F 12% 29.83 in 10.0 mi ESE 3.5 mph - N/A   Clear
2:53 PM 100.4 °F 35.6 °F 11% 29.81 in 10.0 mi ENE 6.9 mph - N/A   Clear
3:53 PM 100.9 °F 35.1 °F 10% 29.81 in 10.0 mi NW 4.6 mph - N/A   Clear
4:53 PM 99.0 °F 37.9 °F 12% 29.81 in 10.0 mi Calm Calm - N/A   Clear
5:53 PM 95.0 °F 44.1 °F 17% 29.81 in 10.0 mi Calm Calm - N/A   Clear
6:53 PM 91.0 °F 46.9 °F 22% 29.83 in 10.0 mi SW 6.9 mph - N/A   Clear
7:53 PM 87.8 °F 50.0 °F 27% 29.84 in 10.0 mi West 8.1 mph - N/A   Clear
8:53 PM 84.0 °F 51.1 °F 32% 29.86 in 10.0 mi West 8.1 mph - N/A   Clear
9:53 PM 80.1 °F 52.0 °F 38% 29.88 in 10.0 mi West 4.6 mph - N/A   Clear
10:53 PM 78.1 °F 50.0 °F 37% 29.88 in 10.0 mi West 8.1 mph - N/A   Clear
11:53 PM 77.0 °F 50.0 °F 39% 29.88 in 10.0 mi WSW 5.8 mph - N/A   Clear